Location: Ernsee
(50.8780°N, 12.0389°E)
Time: 16:53:04
(UTC+00:00)

ATLAS 2AS CENTAUR R/B - Pass Details

Date: 20 January 2020
Orbit: 929 x 1283 km, 63.7° (Epoch: 08 February)

Event Time Altitude Azimuth Distance (km) Brightness Sun altitude
Rises 04:37:51 0° 192° (SSW) 4,186 5.7 -22.5°
Reaches altitude 10° 04:40:45 10° 186° (S) 3,248 5.2 -22.1°
Maximum altitude 04:48:08 44° 118° (ESE) 1,712 4.2 -20.9°
Drops below altitude 10° 04:55:33 10° 50° (NE) 3,267 5.8 -19.8°
Sets 04:58:27 0° 45° (NE) 4,214 6.3 -19.3°
